Terminal Aerodrome Forecast
Issued by NWS

Home | Current Version | Previous Version | Text Only | Print | Product List | Glossary On
Versions: 1 2 3 4 5 6 7 8 9 10 11 12 13 14 15 16 17 18 19 20 21 22 23 24 25 26 27 28 29 30 31 32 33 34 35 36 37 38 39 40 41 42 43 44 45 46 47 48 49 50
375
FTUS43 KDDC 251240 AAA
TAFGCK
TAF AMD
KGCK 251240Z 2513/2612 36016G26KT P6SM SCT200
     FM251500 36022G32KT P6SM SCT200
     FM252000 36015G25KT P6SM SCT250
     FM260000 36010G20KT P6SM SKC
     FM260600 33007KT P6SM SKC=

USA.gov is the U.S. government's official web portal to all federal, state and local government web resources and services.